User: anonymous   Login
Location: Unspecified
(0.0000°N, 0.0000°E)
Time: 08:40:59
(UTC+02:00)
Language:

GP-B - Orbit

View from above orbital plane
View from above orbital plane
View from above satellite
View from above satellite

Ground track
Ground track

The orbit data is extracted from the following two-line orbital elements,

1 28230U 04014A   15089.48506024  .00001095  00000-0  14950-3 0  9993
2 28230 089.8765 135.9115 0002833 107.2006 252.9526 14.78049687589475
Epoch (UTC): 30 March 2015 11:38:29
Eccentricity: 0.0002833
inclination: 89.8765°
perigee height: 633 km
apogee height: 637 km
right ascension of ascending node: 135.9115°
argument of perigee: 107.2006°
revolutions per day: 14.78049687
mean anomaly at epoch: 252.9526°
orbit number at epoch: 58947

The dashed part of the orbit path shows where the satellite is in the earth's shadow,  

DLR